Temperature
29 29 29 29 29 29 29 30 29 29 29 29 28 27 26 24 24 23 23 22 21 20 20 20 19 19 19 19 18 18 18 18 17 17 17 17 16 16 16 16 16 16 15 15
28 29 29 28 29 29 29 29 29 29 29 29 28 27 25 24 23 23 22 22 21 20 19 19 19 19 18 18 18 17 17 17 17 17 16 16 16 16 16 16 15 15 15 15
28 28 28 28 29 29 29 29 29 29 29 28 27 26 24 23 23 22 22 21 20 20 19 18 18 18 18 17 17 17 17 17 16 16 16 16 16 15 15 15 15 15 15 14
28 27 26 29 29 29 29 29 29 29 29 28 27 25 24 23 22 22 21 20 20 19 19 18 18 17 17 17 16 16 16 16 16 16 15 15 15 15 15 15 15 15 14 14
27 27 27 28 28 28 28 28 28 28 28 27 25 24 24 22 21 21 20 19 19 19 18 18 17 17 17 16 16 16 15 15 15 15 15 15 15 15 14 14 14 14 14 14
26 26 26 28 28 27 28 27 27 27 27 26 25 26 25 22 20 20 19 19 18 18 18 17 17 16 16 16 16 15 15 15 15 15 15 15 14 14 14 14 14 14 13 13
26 26 27 28 27 27 26 27 26 26 25 25 25 25 23 21 20 19 18 18 18 17 17 17 16 16 16 16 15 15 15 14 14 14 14 14 14 14 13 13 13 13 13 13
25 25 26 26 26 26 26 25 25 25 25 24 23 22 21 20 19 18 18 17 17 17 17 16 16 16 16 15 15 14 14 14 14 14 14 14 13 13 13 13 13 13 13 13
26 26 24 24 24 24 23 23 23 24 23 23 22 21 20 19 18 18 17 17 17 16 16 16 15 15 15 15 14 14 14 14 14 13 13 13 13 13 13 13 13 13 13 13
24 25 24 23 23 22 22 22 22 22 22 22 21 20 19 18 17 17 17 16 16 16 16 15 15 15 14 14 14 14 13 13 13 13 13 13 13 13 13 13 13 13 13 12
23 23 23 22 22 21 21 21 21 21 21 21 20 19 18 18 17 16 16 16 16 15 15 15 14 14 14 14 14 13 13 13 13 13 13 13 12 12 12 12 12 12 12 12
23 23 23 22 21 21 21 20 20 20 20 19 19 18 18 17 16 16 16 16 15 15 15 14 14 13 13 13 13 13 13 13 13 13 13 12 12 12 12 12 11 12 11 11
21 21 21 20 20 20 20 20 19 19 19 18 18 18 17 17 16 16 15 15 15 14 14 14 13 13 13 13 13 12 12 12 12 12 12 12 12 12 12 12 11 11 11 11
18 19 19 19 19 19 19 19 19 18 18 17 17 17 16 16 16 15 15 14 14 14 13 13 13 13 12 12 12 12 12 12 12 12 12 12 12 12 12 11 11 11 11 10
18 18 19 19 18 18 18 18 18 18 17 17 17 16 16 16 15 15 14 14 14 13 13 13 13 12 12 12 12 12 12 12 12 12 12 11 11 11 11 11 11 11 11 10
18 18 18 18 18 18 18 18 18 17 17 17 16 16 15 15 15 14 14 14 13 13 13 12 12 12 12 12 12 12 12 11 11 11 11 11 11 11 11 11 10 11 10 10
17 18 18 18 18 18 18 17 17 17 16 16 16 15 15 15 14 14 14 13 13 13 12 12 12 12 11 11 11 12 12 11 11 11 11 11 11 11 10 10 10 10 10 10
17 17 18 18 17 17 17 17 16 16 16 16 15 15 15 14 14 14 13 13 13 12 12 12 12 11 11 11 11 11 11 11 11 11 10 10 10 10 10 10 10 10 9 9
16 16 17 17 17 16 16 16 16 16 15 15 15 15 14 14 14 13 13 13 12 12 12 12 12 11 11 11 11 11 11 11 11 10 10 10 10 10 10 10 10 9 9 9
15 16 16 16 16 16 16 15 15 15 15 15 14 14 14 14 13 13 13 13 12 12 12 11 11 11 11 11 11 11 11 10 10 10 10 10 10 10 10 9 9 9 9 9
15 15 15 15 15 15 15 15 15 14 14 14 14 14 14 13 13 13 12 13 12 12 11 11 11 11 11 11 11 10 10 10 10 10 10 10 9 9 9 9 9 9 8 8
14 15 15 15 15 15 14 14 14 14 14 14 14 13 13 13 13 12 12 12 12 12 11 11 11 11 11 10 10 10 10 10 10 10 10 9 9 9 9 8 8 8 8 8
14 14 14 14 14 14 14 14 14 13 13 13 13 13 13 13 13 12 12 12 12 12 11 11 11 11 11 10 10 10 10 10 10 9 9 9 9 9 8 8 8 8 8 8
13 13 14 14 13 13 13 13 13 13 13 13 13 13 13 13 12 12 12 12 11 11 11 11 11 11 10 10 10 10 10 10 9 9 9 9 9 9 8 8 8 8 8 7
13 13 13 13 13 13 13 13 13 13 13 13 13 13 12 12 12 12 12 11 11 11 11 11 11 10 10 10 10 10 10 9 9 9 9 9 9 8 8 8 8 8 7 7
13 13 13 13 13 13 13 13 13 13 13 13 13 12 12 12 12 11 11 11 11 11 10 10 10 10 10 10 10 9 9 9 9 9 9 8 8 8 8 8 8 7 7 7
13 13 13 13 13 13 13 13 13 13 13 13 12 12 12 12 11 11 11 11 11 11 10 10 10 10 10 10 9 9 9 9 9 9 8 8 8 8 8 8 7 7 7 7
Wind_Speed
8 5 6 7 8 9 11 10 9 7 6 3 5 6 5 6 6 7 6 6 6 5 4 4 4 3 2 2 2 1 1 1 1 1 1 1 1 1 1 0 1 1 1 2
9 8 8 8 9 10 10 9 8 7 5 2 4 5 6 6 6 6 5 5 5 5 4 4 4 3 3 3 2 2 2 2 2 2 1 1 2 1 0 1 1 1 2 2
9 9 9 11 10 10 9 9 8 8 4 5 6 7 7 6 6 5 4 4 5 5 4 4 3 3 3 3 3 2 2 3 3 2 2 2 2 2 1 1 1 2 2 2
7 8 11 6 4 7 8 8 8 6 4 5 6 6 6 6 6 5 4 4 4 4 4 4 4 4 3 3 3 3 2 3 3 3 3 2 2 2 2 2 2 1 2 1
7 10 10 5 5 6 7 7 5 5 4 5 6 6 6 5 6 5 4 4 4 4 5 5 4 4 4 3 3 3 3 3 3 1 1 1 1 2 2 2 2 2 2 2
8 11 11 5 4 5 7 8 4 4 5 7 9 7 5 8 7 6 5 5 5 4 5 5 4 4 4 4 4 3 3 2 2 1 1 1 1 2 2 2 2 2 2 2
11 11 8 1 3 6 8 3 3 5 6 8 7 2 7 10 8 7 6 5 5 5 4 4 4 4 3 4 3 2 2 2 2 2 1 1 1 1 2 2 2 2 2 2
10 11 8 2 4 5 2 2 2 4 4 5 5 7 9 10 9 8 6 6 5 5 4 4 4 3 3 3 2 2 1 1 2 1 1 1 1 1 1 2 2 2 2 3
5 4 1 1 2 2 2 1 2 3 3 6 7 8 9 9 9 8 6 5 4 4 4 4 3 2 2 2 2 1 1 1 1 1 2 2 1 1 2 2 3 3 3 3
4 3 1 1 1 0 1 0 1 3 5 7 8 9 9 8 8 7 6 5 4 4 4 4 3 3 2 2 1 1 1 1 1 1 1 2 2 2 2 3 3 3 3 4
6 4 2 1 1 0 1 1 2 4 6 8 9 9 8 8 7 6 5 5 4 4 4 4 3 3 2 2 1 1 1 1 1 1 1 2 2 2 2 3 3 3 4 4
5 3 3 2 0 0 1 2 3 5 7 7 7 8 8 7 7 6 6 5 4 4 4 3 3 2 2 2 1 1 1 1 2 1 1 2 2 2 3 2 1 1 3 4
5 4 3 2 1 1 1 2 4 5 7 7 7 8 8 8 7 6 5 5 4 3 3 3 3 2 2 1 0 1 1 2 2 2 2 2 2 2 3 2 1 3 3 2
4 3 3 3 1 2 2 4 5 6 7 7 7 8 7 7 7 6 5 4 4 3 3 2 2 2 1 1 1 1 2 1 2 2 3 3 3 3 3 3 3 3 2 4
5 5 4 2 2 3 4 6 6 7 7 7 7 7 7 6 6 5 5 4 4 4 3 2 1 1 1 1 1 2 2 2 2 3 3 3 3 4 3 3 4 3 3 1
4 4 4 4 4 5 5 6 6 6 7 7 6 6 5 5 5 5 4 4 4 3 3 1 1 0 0 1 1 2 2 2 3 3 3 3 3 3 4 4 4 4 4 4
5 6 6 5 5 5 5 5 5 5 6 6 6 6 6 6 5 5 4 4 3 3 2 1 0 0 1 1 2 2 2 1 2 4 3 3 4 4 4 4 4 4 5 4
4 4 5 5 4 4 4 5 4 5 5 5 6 6 6 6 5 5 4 4 3 2 1 1 1 0 1 1 2 3 2 2 2 3 3 3 4 4 4 4 4 4 4 3
2 3 3 4 4 4 4 4 4 4 5 5 6 6 5 5 5 4 4 4 3 2 1 1 1 1 1 1 2 2 3 3 2 3 3 3 4 4 4 4 4 4 4 4
2 2 3 4 4 4 4 4 4 4 4 5 6 6 5 5 5 5 4 4 2 1 2 1 1 1 1 1 3 2 2 2 3 2 2 3 4 4 4 4 4 4 4 4
2 3 3 4 4 4 4 5 5 5 4 5 5 5 5 5 5 4 4 3 2 2 2 2 2 1 1 1 3 2 2 2 2 3 3 3 3 3 4 4 4 4 4 4
2 3 3 4 4 3 4 4 4 5 5 5 5 4 4 4 4 4 3 2 3 3 2 2 1 1 2 3 2 2 2 2 3 3 3 3 3 3 3 4 4 4 4 4
2 2 2 3 3 3 4 3 4 4 4 4 4 4 4 3 3 3 3 2 3 3 2 1 2 2 3 3 2 2 2 3 3 3 3 3 3 3 3 4 4 4 4 4
2 2 2 3 4 4 4 3 3 3 3 3 4 4 3 3 3 3 2 3 3 3 2 2 4 3 5 3 2 3 3 3 3 3 3 2 3 3 3 3 4 4 4 4
2 2 3 3 3 3 3 3 4 4 3 3 3 3 2 2 2 2 1 2 3 3 2 4 6 5 4 2 2 3 3 3 3 3 2 2 3 3 3 3 3 3 3 4
2 2 2 2 2 2 2 2 2 2 2 2 2 1 1 2 2 2 2 3 3 3 3 2 2 3 3 2 2 3 3 2 2 3 3 3 3 3 3 3 4 3 3 4
2 2 3 2 2 2 2 2 2 2 2 2 1 2 2 2 2 2 2 2 2 2 2 2 2 2 2 2 2 2 3 3 2 2 2 3 3 3 3 3 3 3 3 3
Wind_Direction
252 253 236 233 234 229 237 253 262 261 260 231 183 182 163 150 151 150 148 144 140 138 129 123 114 108 102 95 84 89 107 89 65 40 36 24 21 17 25 336 279 265 254 252
235 235 234 243 241 235 240 248 252 258 253 174 170 164 156 157 159 158 153 149 144 138 131 123 115 110 102 93 91 91 89 77 60 43 39 27 9 14 331 291 294 287 280 266
235 229 236 240 237 236 236 239 245 248 235 159 173 170 169 166 167 163 149 148 144 138 131 125 118 110 104 94 90 89 81 63 48 27 18 13 357 357 334 297 281 268 266 260
241 227 239 240 225 237 240 242 247 251 216 182 174 166 163 165 164 157 145 145 140 135 130 120 111 107 100 93 84 77 69 61 44 23 11 5 352 341 320 302 283 268 259 259
240 239 241 222 207 220 232 236 235 228 199 177 154 154 162 161 156 149 144 138 133 134 127 119 116 112 108 95 79 66 49 41 34 24 19 359 340 322 313 309 293 282 276 275
236 246 244 236 189 209 230 230 203 201 185 176 178 206 175 156 149 144 139 133 131 128 122 119 117 118 115 97 79 60 44 35 32 31 36 2 321 303 308 298 286 283 298 293
237 245 246 179 165 192 223 234 168 198 193 190 199 209 125 139 142 138 130 126 123 118 112 111 115 116 107 91 75 59 54 29 22 30 17 343 330 311 301 298 308 296 293 288
233 242 239 105 178 213 284 13 173 188 188 180 153 127 133 139 139 135 130 124 122 116 109 108 114 120 111 91 73 56 50 32 19 5 338 23 7 333 319 304 288 279 282 288
239 244 43 169 247 286 303 263 216 198 177 162 150 144 144 142 139 135 130 125 123 120 115 109 111 114 107 89 84 71 42 26 8 357 347 354 351 348 322 308 307 315 309 312
244 247 278 235 255 316 334 320 169 165 160 157 150 146 143 140 137 134 129 126 123 120 114 102 92 85 90 99 94 78 35 8 350 345 354 5 340 342 336 328 319 320 321 322
238 245 236 220 338 14 53 81 119 134 144 148 147 147 145 142 139 136 132 128 128 122 113 103 95 89 90 90 80 30 2 355 338 347 359 341 336 342 322 339 334 312 316 318
250 255 261 240 333 16 94 96 123 132 135 139 146 146 143 141 140 138 134 132 128 120 115 112 104 92 82 80 70 355 332 325 325 329 343 322 325 336 15 340 15 284 310 308
275 284 286 278 265 220 142 119 126 135 137 139 139 140 140 138 138 136 133 131 131 128 126 123 115 101 87 67 15 331 323 324 321 324 321 304 302 303 312 321 248 228 241 269
264 259 239 231 215 160 144 132 129 128 129 133 134 136 136 134 135 136 134 138 135 131 128 124 117 97 75 38 333 315 308 334 310 306 302 299 299 298 298 301 305 309 251 210
242 240 233 206 183 162 155 147 142 138 132 131 134 139 139 138 136 134 135 139 136 139 128 120 113 88 36 320 315 313 317 325 322 314 299 301 302 298 298 303 305 305 313 294
239 217 202 192 181 172 169 160 153 147 143 142 140 140 141 138 137 136 139 145 148 137 126 131 134 71 331 320 323 313 330 8 322 306 302 304 305 309 311 312 309 313 322 329
217 203 193 190 185 180 176 169 162 156 157 155 151 149 149 149 147 143 147 149 144 138 142 149 141 354 305 297 300 304 310 321 273 295 313 321 320 317 318 316 318 322 317 337
230 223 209 194 185 179 176 172 163 161 161 158 157 157 159 159 156 149 150 144 140 138 133 121 109 227 277 299 305 308 303 308 310 318 322 322 323 317 307 305 312 314 317 328
203 193 191 186 182 180 177 171 165 160 155 154 157 159 160 161 157 155 155 156 161 173 170 131 138 210 250 332 311 282 299 305 310 321 321 320 298 298 306 310 315 318 319 327
177 178 178 176 177 176 173 168 160 153 155 158 159 160 163 166 165 165 168 174 176 161 158 164 204 251 272 286 288 289 296 297 300 301 296 295 297 304 308 312 314 316 321 326
151 149 150 148 149 161 161 157 158 162 167 168 168 170 169 170 175 176 178 176 146 138 152 171 212 249 283 309 260 292 294 291 285 285 284 287 297 305 312 319 318 317 318 319
129 128 133 135 142 150 149 155 161 167 168 169 169 169 171 176 178 180 182 183 163 158 190 203 217 47 327 287 281 302 298 291 287 287 287 296 305 310 314 321 321 318 320 320
124 125 136 137 140 142 142 149 158 165 163 162 164 172 181 185 189 192 198 190 186 177 209 217 85 105 271 266 282 277 282 286 288 290 294 298 303 311 319 322 323 323 324 324
136 142 145 139 136 143 149 150 149 154 154 162 168 173 185 190 188 186 182 164 159 170 225 143 153 199 239 252 272 277 278 283 288 293 296 298 304 313 318 315 316 322 328 330
140 141 141 151 159 166 156 155 158 161 169 161 158 167 188 187 180 177 190 169 156 189 228 177 179 205 230 260 267 273 277 286 291 293 291 297 301 306 310 309 309 313 321 324
148 152 139 157 157 161 167 174 177 167 170 167 162 157 156 155 165 179 200 199 202 211 234 229 196 204 235 255 267 276 280 270 263 269 287 291 293 300 307 309 313 316 315 313
150 143 145 147 141 155 175 185 188 189 190 186 181 168 170 181 186 187 200 215 219 225 233 227 217 219 238 257 269 280 287 286 283 286 287 287 295 298 300 300 308 313 314 316
Height
1476 1474 1475 1477 1478 1478 1480 1477 1481 1479 1478 1478 1482 1486 1490 1494 1496 1498 1500 1502 1503 1505 1506 1506 1506 1507 1507 1508 1508 1508 1508 1507 1507 1507 1506 1506 1505 1505 1505 1504 1504 1503 1503 1503
1480 1476 1475 1478 1476 1475 1476 1475 1476 1477 1478 1477 1482 1486 1491 1494 1496 1498 1500 1501 1503 1504 1505 1505 1505 1506 1506 1506 1506 1506 1506 1506 1505 1505 1504 1504 1504 1503 1503 1503 1502 1502 1501 1500
1481 1476 1478 1482 1474 1473 1473 1471 1473 1477 1476 1479 1482 1486 1490 1493 1495 1497 1499 1501 1502 1503 1504 1504 1505 1505 1505 1505 1505 1505 1505 1505 1504 1504 1504 1503 1503 1502 1501 1501 1500 1499 1499 1498
1478 1483 1494 1474 1467 1468 1471 1471 1471 1471 1474 1478 1482 1486 1490 1492 1495 1497 1499 1501 1502 1502 1503 1504 1504 1504 1504 1504 1505 1505 1504 1504 1503 1503 1503 1502 1501 1501 1500 1499 1498 1497 1497 1496
1479 1483 1479 1471 1468 1470 1472 1473 1471 1473 1476 1480 1484 1487 1489 1492 1494 1496 1499 1500 1501 1502 1502 1503 1503 1503 1503 1504 1504 1504 1504 1503 1503 1502 1502 1501 1500 1499 1498 1497 1496 1495 1495 1494
1479 1485 1485 1470 1466 1469 1472 1475 1472 1474 1477 1480 1483 1482 1485 1491 1494 1496 1498 1499 1500 1501 1501 1502 1502 1502 1503 1503 1503 1503 1503 1503 1502 1501 1500 1500 1499 1498 1497 1496 1495 1494 1493 1492
1478 1479 1469 1465 1467 1470 1479 1475 1473 1474 1476 1479 1480 1481 1486 1490 1493 1495 1497 1498 1499 1500 1500 1501 1501 1501 1502 1502 1502 1502 1502 1502 1501 1500 1499 1498 1497 1496 1495 1495 1494 1492 1491 1491
1476 1479 1474 1468 1468 1470 1472 1473 1473 1475 1477 1479 1481 1484 1486 1489 1492 1495 1496 1498 1499 1499 1500 1500 1500 1501 1501 1501 1501 1501 1501 1500 1500 1499 1498 1497 1496 1495 1494 1493 1492 1491 1490 1489
1469 1470 1470 1470 1471 1472 1473 1474 1474 1476 1477 1480 1482 1485 1487 1490 1492 1494 1496 1497 1498 1499 1499 1499 1500 1500 1500 1500 1500 1500 1500 1499 1498 1497 1497 1496 1495 1494 1493 1492 1491 1490 1489 1488
1469 1467 1470 1471 1472 1473 1473 1474 1474 1476 1477 1479 1482 1485 1487 1489 1491 1493 1495 1496 1498 1498 1499 1499 1499 1499 1499 1499 1498 1498 1498 1498 1497 1496 1495 1494 1493 1493 1492 1491 1490 1489 1488 1486
1470 1470 1471 1472 1473 1473 1474 1474 1475 1476 1477 1479 1481 1484 1486 1488 1490 1492 1494 1495 1497 1497 1498 1498 1498 1498 1498 1498 1497 1497 1497 1496 1496 1495 1494 1493 1492 1491 1490 1489 1488 1487 1485 1484
1467 1470 1470 1472 1473 1474 1474 1474 1475 1476 1478 1480 1482 1484 1486 1488 1490 1491 1493 1494 1495 1496 1497 1497 1497 1498 1498 1497 1496 1496 1495 1495 1494 1494 1493 1492 1490 1489 1488 1487 1486 1484 1483 1482
1470 1471 1471 1472 1473 1474 1474 1475 1476 1477 1478 1480 1482 1484 1486 1487 1489 1491 1492 1494 1495 1495 1496 1497 1497 1497 1496 1496 1495 1494 1494 1493 1493 1492 1491 1490 1489 1488 1486 1485 1484 1482 1480 1479
1470 1471 1471 1472 1473 1473 1474 1475 1476 1477 1479 1481 1483 1485 1486 1487 1489 1490 1491 1493 1494 1495 1495 1496 1496 1496 1495 1495 1494 1494 1493 1492 1492 1491 1490 1489 1487 1486 1485 1483 1481 1480 1479 1477
1469 1470 1470 1471 1472 1473 1474 1475 1476 1477 1479 1481 1483 1485 1486 1487 1488 1490 1491 1493 1493 1494 1495 1495 1495 1495 1494 1494 1493 1493 1492 1491 1490 1489 1488 1487 1486 1484 1483 1481 1479 1478 1476 1475
1467 1468 1469 1470 1471 1472 1473 1474 1475 1477 1479 1481 1482 1484 1485 1487 1488 1489 1490 1492 1492 1493 1493 1494 1494 1494 1493 1493 1492 1491 1490 1489 1488 1488 1486 1485 1484 1483 1481 1480 1478 1476 1475 1473
1466 1466 1468 1469 1470 1471 1473 1474 1475 1477 1478 1480 1481 1483 1484 1486 1487 1488 1490 1491 1491 1492 1492 1492 1492 1492 1491 1491 1491 1490 1489 1488 1487 1486 1485 1484 1482 1481 1480 1478 1477 1475 1473 1471
1464 1465 1467 1468 1469 1470 1472 1473 1474 1476 1477 1478 1480 1482 1483 1485 1486 1487 1489 1489 1490 1491 1491 1491 1490 1490 1490 1490 1489 1489 1488 1486 1485 1485 1483 1482 1481 1480 1478 1477 1475 1473 1472 1470
1463 1464 1465 1467 1468 1469 1471 1472 1473 1475 1476 1477 1479 1481 1482 1484 1485 1486 1487 1488 1488 1489 1489 1489 1488 1489 1489 1488 1487 1487 1486 1485 1484 1483 1482 1480 1479 1479 1477 1475 1473 1472 1470 1469
1462 1462 1464 1465 1467 1468 1470 1471 1472 1473 1475 1476 1478 1479 1481 1482 1483 1485 1485 1486 1487 1487 1487 1487 1487 1487 1487 1486 1485 1485 1484 1484 1483 1481 1480 1479 1478 1477 1475 1474 1472 1470 1468 1467
1461 1462 1463 1464 1466 1467 1469 1470 1471 1473 1474 1475 1477 1478 1479 1481 1482 1483 1484 1485 1485 1485 1485 1485 1485 1485 1485 1484 1484 1483 1483 1482 1481 1480 1479 1478 1477 1475 1473 1472 1470 1468 1467 1465
1461 1462 1463 1464 1465 1467 1468 1469 1471 1472 1473 1475 1476 1477 1478 1479 1480 1481 1482 1483 1483 1483 1483 1484 1484 1483 1483 1483 1483 1482 1481 1480 1480 1478 1477 1476 1475 1473 1472 1470 1468 1466 1465 1463
1460 1462 1463 1464 1465 1466 1468 1469 1470 1471 1472 1474 1475 1476 1477 1478 1479 1480 1481 1481 1481 1481 1482 1482 1482 1481 1481 1481 1481 1480 1479 1478 1478 1477 1475 1474 1473 1471 1470 1468 1466 1465 1463 1461
1461 1461 1462 1464 1465 1466 1467 1468 1469 1470 1472 1473 1473 1474 1475 1476 1477 1478 1478 1478 1479 1479 1480 1480 1479 1479 1478 1479 1478 1478 1477 1476 1476 1475 1474 1472 1471 1470 1468 1467 1465 1463 1462 1460
1461 1462 1463 1463 1465 1466 1467 1468 1469 1469 1470 1471 1472 1473 1474 1474 1475 1476 1476 1476 1476 1476 1477 1477 1476 1476 1476 1476 1476 1475 1475 1474 1473 1472 1471 1470 1469 1468 1466 1465 1464 1462 1461 1459
1461 1462 1463 1464 1464 1465 1466 1467 1468 1469 1469 1470 1471 1471 1472 1473 1473 1473 1474 1474 1474 1474 1475 1475 1474 1474 1474 1474 1474 1473 1473 1472 1471 1470 1469 1468 1467 1466 1465 1464 1462 1461 1459 1458
1461 1462 1462 1463 1464 1465 1466 1467 1467 1468 1469 1469 1470 1470 1471 1471 1471 1471 1472 1472 1473 1473 1473 1473 1472 1472 1472 1472 1472 1471 1471 1470 1469 1468 1467 1467 1465 1464 1463 1462 1460 1459 1458 1456